Regional Weather Roundup
Issued by NWS Green Bay, WI

Home | Current Version | Previous Version | Text Only | Print | Product List | Glossary On
Versions: 1 2 3 4 5 6 7 8 9 10 11 12 13 14 15 16 17 18 19 20 21 22 23 24 25 26 27 28 29 30 31 32 33 34 35 36 37 38 39 40 41 42 43 44 45 46 47 48 49 50
000
ASUS43 KGRB 211810
RWRGRB

NORTH-CENTRAL AND NORTHEAST WISCONSIN REGIONAL WEATHER ROUNDUP
NATIONAL WEATHER SERVICE GREEN BAY WI
100 PM CDT THU AUG 21 2014

WIZ005-009-010>012-018-019-211900-
NORTH CENTRAL WISCONSIN

CITY           SKY/WX    TMP DP  RH WIND       PRES   REMARKS
IRONWOOD       CLOUDY    72  66  83 E8        29.88F
MANITOWISH WTR CLOUDY    69  65  86 S9        29.94S
ARBOR VITAE    CLOUDY    72  67  83 SE7       29.94F
EAGLE RIVER    CLOUDY    68  63  85 SE7       29.96S
LAND O LAKES   CLOUDY    69  63  80 SE7       29.97S
RHINELANDER    CLOUDY    67  63  87 SE8       29.96F
PHILLIPS       CLOUDY    67  65  96 SE8       29.91S
ANTIGO         LGT RAIN  65  64  96 SE8       29.96F
TOMAHAWK       CLOUDY    65  64  97 SE5       29.94F FOG
MERRILL        LGT RAIN  67  66  96 SE9       29.93F
$$

WIZ013-073-211900-
NORTHEAST WISCONSIN

CITY           SKY/WX    TMP DP  RH WIND       PRES   REMARKS
IRON MOUNTAIN  CLOUDY    69  62  78 S6        29.96S
MARINETTE      CLOUDY    70  63  78 SE8       29.96F
OCONTO         CLOUDY    68  63  83 SE6       29.97S
$$

WIZ017-030-035>037-045-211900-
CENTRAL WISCONSIN

CITY           SKY/WX    TMP DP  RH WIND       PRES   REMARKS
MEDFORD        CLOUDY    68  66  93 SE9       29.90F
WAUSAU         CLOUDY    66  65  96 SE8       29.91F
MOSINEE        CLOUDY    66  66 100 E9G16     29.92F FOG
MARSHFIELD     CLOUDY    75  68  78 E9        29.88F
WISC RAPIDS    CLOUDY    72  68  87 SE8       29.90F
STEVENS POINT  CLOUDY    67  65  93 E13       29.91F
WAUPACA        CLOUDY    70  68  94 E6        29.93F FOG
SHAWANO        LGT RAIN  69  66  90 E5        29.96F
CLINTONVILLE   DRIZZLE   68  64  88 E9        29.93F
$$

WIZ038-039-048-051-211900-
FOX VALLEY

CITY           SKY/WX    TMP DP  RH WIND       PRES   REMARKS
NWS GREEN BAY  LGT RAIN  68  65  90 SE7       29.97S
APPLETON       LGT RAIN  66  66 100 VRB5      29.96F FOG
OSHKOSH        LGT RAIN  70  69  97 SE9       29.91F FOG
FOND DU LAC    RAIN      69  67  93 SE9       29.95F FOG
$$

WIZ022-050-052-211900-
EAST CENTRAL WISCONSIN

CITY           SKY/WX    TMP DP  RH WIND       PRES   REMARKS
STURGEON BAY   CLOUDY    66  61  82 SE7       29.98F
MANITOWOC      LGT RAIN  67  64  90 CALM      29.98R
SHEBOYGAN      LGT RAIN  68  65  90 SW7       30.00R FOG
$$

LMZ563-521-522-541>543-211900-
LAKESHORE

STATION/POSITION TIME  TEMP    WIND        PRES    VSBY  WAVE
                       AIR SEA DIR/SP/G                  HT/PER
                 (UTC) (F)     (DEG/KT/KT) (MB)    (MI)  (FT/S)
SHEBOYGAN LKSHOR 1800   67 67  220/  2/  3 1015.8R
KEWAUNEE LKSHORE 1800   66     100/  2/  4 1014.2F
ALGOMA MARINA    1800             CALM       N/A
TWO RIVERS CG    1800   65 72                N/A       6   1
NORTHPORT PIER   1800   65     140/  7/  8 1014.9F
N MID LAKE BUOY  1800   65 65  110/  4/  6 1014.7F         0
S GREEN BAY BUOY 1800   68     VRB  8      1015.9R
SISTER BAY LKSHO 1800   70     170/ 10/ 12   N/A
STURGEON BAY CG  1800   65 64   90/  4     1015.8      6   1
CHAMBERS ISLAND  1800   69     150/  3/ 10 1015.2S
MENOMINEE LKSHOR 1800   68     130/  9/  9 1015.4F
$$



USA.gov is the U.S. government's official web portal to all federal, state and local government web resources and services.